HAZ9841 ZPPP-ZSHC

Flight info

Callsign HAZ9841
Flight time 2h 24m
Altitude 33100
Route NODIB W137 LPS A581 IDGAG W80 XSH DCT JDZ DCT TXN G204 OREXA
Aircraft A339/H-SADE1E2E3GHIJ1J3J5M1P2RWXY/LB2D1

Departure

Time 2026-05-04 12:48
Airport Kunming Changshui International Airport (ZPPP)

Arrival

Time 2026-05-04 15:12
Airport Hangzhou Xiaoshan International Airport (ZSHC)
Time Latitude Longitude Altitude Speed Heading
2026-05-04 11:31 25.10511 102.93052 6922 ft 0 kts 248°
2026-05-04 11:33 25.11331 102.93361 6921 ft 0 kts 38°
2026-05-04 12:21 25.11331 102.93360 6921 ft 0 kts 38°
2026-05-04 12:22 25.11329 102.93359 6921 ft 1 kts 44°
2026-05-04 12:23 25.11321 102.93346 6921 ft 2 kts 57°
2026-05-04 12:23 25.11311 102.93333 6921 ft 2 kts 34°
2026-05-04 12:23 25.11298 102.93324 6921 ft 2 kts 36°
2026-05-04 12:23 25.11286 102.93314 6921 ft 1 kts 39°
2026-05-04 12:24 25.11279 102.93308 6921 ft 2 kts 24°
2026-05-04 12:24 25.11265 102.93307 6921 ft 2 kts 333°
2026-05-04 12:24 25.11257 102.93313 6921 ft 0 kts 306°
2026-05-04 12:24 25.11254 102.93317 6921 ft 0 kts 308°
2026-05-04 12:27 25.11255 102.93317 6921 ft 0 kts 307°
2026-05-04 12:27 25.11260 102.93308 6921 ft 2 kts 305°
2026-05-04 12:27 25.11271 102.93289 6921 ft 4 kts 301°
2026-05-04 12:28 25.11293 102.93252 6921 ft 6 kts 304°
2026-05-04 12:28 25.11322 102.93207 6921 ft 8 kts 307°
2026-05-04 12:28 25.11361 102.93151 6921 ft 10 kts 308°
2026-05-04 12:28 25.11410 102.93084 6921 ft 11 kts 311°
2026-05-04 12:29 25.11479 102.93053 6921 ft 11 kts 12°
2026-05-04 12:29 25.11550 102.93095 6921 ft 11 kts 35°
2026-05-04 12:29 25.11618 102.93152 6921 ft 12 kts 38°
2026-05-04 12:29 25.11687 102.93211 6921 ft 12 kts 38°
2026-05-04 12:30 25.11759 102.93274 6921 ft 13 kts 38°
2026-05-04 12:30 25.11835 102.93341 6921 ft 14 kts 38°
2026-05-04 12:30 25.11915 102.93411 6921 ft 15 kts 38°
2026-05-04 12:30 25.12001 102.93485 6921 ft 16 kts 38°
2026-05-04 12:31 25.12090 102.93563 6921 ft 16 kts 38°
2026-05-04 12:31 25.12183 102.93644 6921 ft 17 kts 38°
2026-05-04 12:31 25.12278 102.93726 6921 ft 17 kts 38°
2026-05-04 12:31 25.12375 102.93811 6921 ft 18 kts 38°
2026-05-04 12:32 25.12474 102.93897 6921 ft 18 kts 38°
2026-05-04 12:32 25.12599 102.94006 6921 ft 0 kts 38°
2026-05-04 12:33 25.12600 102.94007 6921 ft 0 kts 38°
2026-05-04 12:33 25.12618 102.94022 6921 ft 5 kts 38°
2026-05-04 12:33 25.12653 102.94053 6921 ft 6 kts 38°
2026-05-04 12:34 25.12656 102.94056 6921 ft 0 kts 38°
2026-05-04 12:34 25.12661 102.94061 6921 ft 1 kts 38°
2026-05-04 12:34 25.12678 102.94075 6921 ft 4 kts 38°
2026-05-04 12:35 25.12719 102.94110 6921 ft 8 kts 38°
2026-05-04 12:35 25.12738 102.94127 6921 ft 0 kts 38°
2026-05-04 12:37 25.12741 102.94129 6921 ft 1 kts 38°
2026-05-04 12:37 25.12751 102.94139 6921 ft 2 kts 38°
2026-05-04 12:38 25.12772 102.94157 6921 ft 4 kts 38°
2026-05-04 12:38 25.12783 102.94166 6921 ft 0 kts 38°
2026-05-04 12:40 25.12787 102.94170 6921 ft 1 kts 38°
2026-05-04 12:40 25.12804 102.94184 6921 ft 4 kts 38°
2026-05-04 12:40 25.12823 102.94201 6921 ft 0 kts 38°
2026-05-04 12:41 25.12823 102.94202 6921 ft 0 kts 38°
2026-05-04 12:42 25.12840 102.94215 6921 ft 8 kts 38°
2026-05-04 12:42 25.12879 102.94250 6921 ft 0 kts 37°
2026-05-04 12:44 25.12881 102.94251 6921 ft 1 kts 37°
2026-05-04 12:44 25.12899 102.94263 6921 ft 4 kts 24°
2026-05-04 12:44 25.12943 102.94266 6921 ft 7 kts 341°
2026-05-04 12:44 25.12954 102.94260 6921 ft 0 kts 328°
2026-05-04 12:46 25.12972 102.94245 6921 ft 7 kts 321°
2026-05-04 12:46 25.13014 102.94171 6921 ft 15 kts 273°
2026-05-04 12:46 25.12958 102.94078 6921 ft 5 kts 218°
2026-05-04 12:46 25.12956 102.94076 6921 ft 0 kts 218°
2026-05-04 12:47 25.12955 102.94075 6921 ft 2 kts 218°
2026-05-04 12:47 25.12817 102.93955 6921 ft 55 kts 218°
2026-05-04 12:47 25.12358 102.93556 6921 ft 110 kts 219°
2026-05-04 12:47 25.11622 102.92916 6921 ft 156 kts 219°
2026-05-04 12:48 25.10692 102.92104 7084 ft 181 kts 219°
2026-05-04 12:48 25.09663 102.91203 7454 ft 190 kts 219°
2026-05-04 12:48 25.08646 102.90314 8109 ft 188 kts 219°
2026-05-04 12:48 25.07701 102.89337 8696 ft 188 kts 235°
2026-05-04 12:49 25.07011 102.88050 9049 ft 201 kts 243°
2026-05-04 12:49 25.06339 102.86629 9305 ft 215 kts 241°
2026-05-04 12:49 25.05549 102.85157 9556 ft 230 kts 238°
2026-05-04 12:49 25.04674 102.83647 9818 ft 244 kts 243°
2026-05-04 12:50 25.04296 102.81793 10059 ft 260 kts 277°
2026-05-04 12:50 25.05031 102.79908 10336 ft 280 kts 310°
2026-05-04 12:50 25.06687 102.78696 10603 ft 302 kts 341°
2026-05-04 12:50 25.08865 102.78572 10881 ft 326 kts 11°
2026-05-04 12:51 25.10964 102.79678 11158 ft 348 kts 38°
2026-05-04 12:51 25.12468 102.81796 11469 ft 365 kts 62°
2026-05-04 12:51 25.13549 102.84367 12046 ft 371 kts 64°
2026-05-04 12:51 25.14671 102.86974 12659 ft 376 kts 62°
2026-05-04 12:52 25.15863 102.89512 13259 ft 380 kts 59°
2026-05-04 12:52 25.17164 102.92095 13902 ft 382 kts 58°
2026-05-04 12:52 25.18502 102.94636 14510 ft 385 kts 57°
2026-05-04 12:52 25.19870 102.97169 15060 ft 390 kts 56°
2026-05-04 12:53 25.21269 102.99725 15599 ft 394 kts 56°
2026-05-04 12:53 25.22708 103.02339 16171 ft 397 kts 56°
2026-05-04 12:53 25.24148 103.04946 16715 ft 401 kts 55°
2026-05-04 12:53 25.25600 103.07569 17241 ft 405 kts 55°
2026-05-04 12:54 25.27086 103.10250 17779 ft 408 kts 55°
2026-05-04 12:54 25.28569 103.12930 18304 ft 412 kts 55°
2026-05-04 12:54 25.30070 103.15640 18842 ft 415 kts 55°
2026-05-04 12:54 25.31565 103.18346 19358 ft 418 kts 55°
2026-05-04 12:55 25.33089 103.21105 19884 ft 421 kts 55°
2026-05-04 12:55 25.34609 103.23856 20375 ft 425 kts 55°
2026-05-04 12:55 25.36148 103.26642 20871 ft 428 kts 55°
2026-05-04 12:55 25.37721 103.29491 21363 ft 431 kts 55°
2026-05-04 12:56 25.39269 103.32298 21821 ft 434 kts 55°
2026-05-04 12:56 25.40857 103.35181 22290 ft 437 kts 55°
2026-05-04 12:56 25.42419 103.38018 22745 ft 440 kts 55°
2026-05-04 12:56 25.44016 103.40919 23184 ft 443 kts 54°
2026-05-04 12:57 25.45618 103.43834 23610 ft 446 kts 54°
2026-05-04 12:57 25.47251 103.46805 24029 ft 450 kts 54°
2026-05-04 12:57 25.48880 103.49771 24436 ft 453 kts 54°
2026-05-04 12:57 25.50530 103.52776 24827 ft 457 kts 54°
2026-05-04 12:58 25.52169 103.55762 25241 ft 460 kts 54°
2026-05-04 12:58 25.53838 103.58804 25636 ft 463 kts 54°
2026-05-04 12:58 25.55507 103.61852 25990 ft 467 kts 54°
2026-05-04 12:58 25.57214 103.64970 26402 ft 470 kts 54°
2026-05-04 12:59 25.58904 103.68058 26764 ft 472 kts 54°
2026-05-04 12:59 25.60624 103.71203 27111 ft 475 kts 54°
2026-05-04 12:59 25.62336 103.74337 27449 ft 478 kts 54°
2026-05-04 12:59 25.64062 103.77499 27786 ft 481 kts 54°
2026-05-04 13:00 25.65812 103.80706 28109 ft 485 kts 54°
2026-05-04 13:00 25.67560 103.83912 28445 ft 487 kts 54°
2026-05-04 13:00 25.69305 103.87118 28770 ft 490 kts 53°
2026-05-04 13:00 25.71066 103.90350 29072 ft 493 kts 53°
2026-05-04 13:01 25.72854 103.93635 29383 ft 495 kts 54°
2026-05-04 13:01 25.74612 103.96867 29678 ft 498 kts 54°
2026-05-04 13:01 25.76422 104.00202 29984 ft 500 kts 54°
2026-05-04 13:01 25.78213 104.03503 30250 ft 503 kts 54°
2026-05-04 13:02 25.80048 104.06835 30490 ft 505 kts 52°
2026-05-04 13:02 25.81950 104.10101 30740 ft 507 kts 52°
2026-05-04 13:02 25.83882 104.13382 31006 ft 510 kts 51°
2026-05-04 13:02 25.85830 104.16684 31280 ft 512 kts 51°
2026-05-04 13:03 25.87785 104.20003 31623 ft 512 kts 51°
2026-05-04 13:03 25.89712 104.23287 31936 ft 512 kts 51°
2026-05-04 13:03 25.91673 104.26631 32193 ft 514 kts 51°
2026-05-04 13:03 25.93601 104.29922 32422 ft 516 kts 51°
2026-05-04 13:04 25.95576 104.33296 32680 ft 518 kts 51°
2026-05-04 13:04 25.97534 104.36643 32993 ft 519 kts 51°
2026-05-04 13:04 25.99568 104.39928 33305 ft 517 kts 47°
2026-05-04 13:05 26.04129 104.46118 33368 ft 511 kts 40°
2026-05-04 13:05 26.09186 104.51559 33383 ft 506 kts 33°
2026-05-04 13:05 26.11877 104.54078 33659 ft 506 kts 32°
2026-05-04 13:06 26.14579 104.56570 34177 ft 503 kts 32°
2026-05-04 13:06 26.17276 104.59056 34714 ft 499 kts 32°
2026-05-04 13:06 26.19917 104.61495 35155 ft 497 kts 32°
2026-05-04 13:06 26.22597 104.63975 35346 ft 498 kts 32°
2026-05-04 13:07 26.25256 104.66444 35346 ft 497 kts 33°
2026-05-04 13:07 26.30573 104.71391 35349 ft 498 kts 33°
2026-05-04 13:08 26.35871 104.76331 35345 ft 497 kts 32°
2026-05-04 13:08 26.41174 104.81284 35348 ft 497 kts 32°
2026-05-04 13:09 26.46451 104.86220 35345 ft 497 kts 32°
2026-05-04 13:09 26.51771 104.91202 35343 ft 496 kts 32°
2026-05-04 13:10 26.57035 104.96172 35346 ft 499 kts 34°
2026-05-04 13:10 26.61919 105.01775 35341 ft 509 kts 43°
2026-05-04 13:11 26.66107 105.08263 35338 ft 518 kts 52°
2026-05-04 13:11 26.69438 105.15445 35337 ft 526 kts 60°
2026-05-04 13:12 26.72402 105.22917 35341 ft 525 kts 60°
2026-05-04 13:12 26.75352 105.30374 35341 ft 526 kts 60°
2026-05-04 13:13 26.78341 105.37874 35335 ft 525 kts 60°
2026-05-04 13:13 26.81325 105.45349 35332 ft 526 kts 60°
2026-05-04 13:14 26.84308 105.52826 35326 ft 526 kts 60°
2026-05-04 13:14 26.87286 105.60304 35320 ft 526 kts 60°
2026-05-04 13:15 26.90257 105.67776 35312 ft 527 kts 60°
2026-05-04 13:15 26.93244 105.75307 35315 ft 528 kts 60°
2026-05-04 13:16 26.96215 105.82822 35304 ft 530 kts 60°
2026-05-04 13:16 26.99243 105.90471 35298 ft 543 kts 60°
2026-05-04 13:17 27.02336 105.98313 35293 ft 554 kts 60°
2026-05-04 13:17 27.05588 106.06127 35294 ft 554 kts 57°
2026-05-04 13:18 27.09093 106.13795 35294 ft 554 kts 57°
2026-05-04 13:18 27.12601 106.21442 35287 ft 545 kts 57°
2026-05-04 13:18 27.14299 106.25176 35289 ft 530 kts 57°
2026-05-04 13:19 27.15949 106.28809 35294 ft 524 kts 56°
2026-05-04 13:19 27.19286 106.36128 35284 ft 525 kts 56°
2026-05-04 13:20 27.22613 106.43429 35276 ft 526 kts 56°
2026-05-04 13:20 27.25943 106.50764 35266 ft 526 kts 56°
2026-05-04 13:21 27.29263 106.58091 35255 ft 527 kts 56°
2026-05-04 13:21 27.32566 106.65403 35249 ft 526 kts 57°
2026-05-04 13:22 27.35876 106.72736 35239 ft 527 kts 57°
2026-05-04 13:22 27.39196 106.80116 35243 ft 527 kts 57°
2026-05-04 13:23 27.42500 106.87505 35244 ft 527 kts 57°
2026-05-04 13:23 27.45784 106.94859 35242 ft 528 kts 57°
2026-05-04 13:24 27.49076 107.02209 35240 ft 526 kts 56°
2026-05-04 13:24 27.52414 107.09571 35240 ft 527 kts 56°
2026-05-04 13:25 27.57392 107.20593 35238 ft 527 kts 56°
2026-05-04 13:25 27.60698 107.27926 35236 ft 527 kts 56°
2026-05-04 13:26 27.64020 107.35291 35230 ft 527 kts 56°
2026-05-04 13:26 27.67338 107.42677 35225 ft 528 kts 56°
2026-05-04 13:27 27.70648 107.50058 35223 ft 528 kts 56°
2026-05-04 13:27 27.73955 107.57447 35221 ft 527 kts 56°
2026-05-04 13:28 27.77243 107.64800 35227 ft 528 kts 56°
2026-05-04 13:28 27.80566 107.72257 35230 ft 529 kts 57°
2026-05-04 13:29 27.83878 107.79666 35229 ft 529 kts 56°
2026-05-04 13:29 27.87258 107.87049 35217 ft 529 kts 56°
2026-05-04 13:30 27.90627 107.94398 35207 ft 529 kts 56°
2026-05-04 13:30 27.94002 108.01796 35199 ft 529 kts 56°
2026-05-04 13:31 27.97378 108.09215 35195 ft 531 kts 56°
2026-05-04 13:31 28.00760 108.16663 35194 ft 531 kts 56°
2026-05-04 13:32 28.04122 108.24086 35188 ft 532 kts 56°
2026-05-04 13:32 28.07513 108.31585 35184 ft 533 kts 56°
2026-05-04 13:33 28.10874 108.39027 35186 ft 533 kts 56°
2026-05-04 13:33 28.14250 108.46523 35185 ft 533 kts 56°
2026-05-04 13:34 28.17617 108.54003 35182 ft 534 kts 56°
2026-05-04 13:34 28.20996 108.61533 35192 ft 534 kts 56°
2026-05-04 13:35 28.26024 108.72755 35205 ft 534 kts 57°
2026-05-04 13:36 28.29380 108.80270 35206 ft 535 kts 57°
2026-05-04 13:36 28.32714 108.87742 35193 ft 535 kts 57°
2026-05-04 13:37 28.36073 108.95287 35179 ft 536 kts 57°
2026-05-04 13:37 28.39443 109.02879 35164 ft 537 kts 57°
2026-05-04 13:38 28.42773 109.10393 35156 ft 536 kts 57°
2026-05-04 13:38 28.46127 109.17968 35150 ft 536 kts 57°
2026-05-04 13:39 28.49451 109.25505 35144 ft 537 kts 57°
2026-05-04 13:39 28.52784 109.33087 35142 ft 537 kts 57°
2026-05-04 13:40 28.56120 109.40692 35145 ft 538 kts 57°
2026-05-04 13:40 28.59236 109.48479 35146 ft 542 kts 62°
2026-05-04 13:41 28.61972 109.56482 35145 ft 543 kts 63°
2026-05-04 13:41 28.64674 109.64473 35141 ft 542 kts 63°
2026-05-04 13:42 28.68905 109.76402 35130 ft 543 kts 62°
2026-05-04 13:42 28.71777 109.84353 35134 ft 543 kts 63°
2026-05-04 13:43 28.74644 109.92351 35147 ft 544 kts 62°
2026-05-04 13:43 28.77472 110.00268 35161 ft 544 kts 62°
2026-05-04 13:44 28.80310 110.08246 35163 ft 543 kts 63°
2026-05-04 13:44 28.83140 110.16213 35157 ft 544 kts 62°
2026-05-04 13:45 28.85974 110.24209 35150 ft 544 kts 63°
2026-05-04 13:45 28.88819 110.32245 35147 ft 553 kts 63°
2026-05-04 13:46 28.91736 110.40512 35148 ft 556 kts 63°
2026-05-04 13:46 28.94609 110.48691 35148 ft 556 kts 63°
2026-05-04 13:47 28.97465 110.56819 35149 ft 557 kts 63°
2026-05-04 13:47 29.00341 110.65037 35145 ft 556 kts 63°
2026-05-04 13:48 29.03217 110.73258 35138 ft 557 kts 63°
2026-05-04 13:48 29.06120 110.81451 35135 ft 557 kts 63°
2026-05-04 13:49 29.09020 110.89615 35135 ft 557 kts 63°
2026-05-04 13:49 29.11933 110.97849 35136 ft 558 kts 63°
2026-05-04 13:50 29.14815 111.06029 35136 ft 557 kts 63°
2026-05-04 13:50 29.17704 111.14246 35128 ft 557 kts 63°
2026-05-04 13:51 29.20596 111.22495 35120 ft 557 kts 63°
2026-05-04 13:51 29.23452 111.30649 35116 ft 558 kts 63°
2026-05-04 13:52 29.27756 111.42994 35107 ft 556 kts 63°
2026-05-04 13:53 29.30616 111.51214 35102 ft 557 kts 64°
2026-05-04 13:53 29.33496 111.59464 35099 ft 557 kts 62°
2026-05-04 13:54 29.38851 111.71098 35093 ft 547 kts 51°
2026-05-04 13:55 29.45157 111.82032 35092 ft 547 kts 50°
2026-05-04 13:55 29.51427 111.92949 35091 ft 548 kts 51°
2026-05-04 13:56 29.55579 112.00240 35086 ft 547 kts 51°
2026-05-04 13:57 29.61820 112.11225 35091 ft 547 kts 51°
2026-05-04 13:58 29.70151 112.25935 35097 ft 551 kts 51°
2026-05-04 13:58 29.76425 112.37064 35097 ft 551 kts 51°
2026-05-04 13:59 29.80568 112.44456 35097 ft 550 kts 51°
2026-05-04 14:00 29.86775 112.55562 35097 ft 549 kts 52°
2026-05-04 14:00 29.90765 112.62747 35099 ft 520 kts 51°
2026-05-04 14:00 29.92715 112.66257 35101 ft 514 kts 51°
2026-05-04 14:01 29.96587 112.73200 35101 ft 516 kts 52°
2026-05-04 14:02 30.02424 112.83707 35103 ft 517 kts 52°
2026-05-04 14:02 30.06283 112.90677 35105 ft 516 kts 52°
2026-05-04 14:03 30.10144 112.97663 35110 ft 517 kts 52°
2026-05-04 14:03 30.13988 113.04636 35112 ft 516 kts 52°
2026-05-04 14:04 30.19787 113.15172 35112 ft 516 kts 52°
2026-05-04 14:04 30.23643 113.22143 35112 ft 515 kts 52°
2026-05-04 14:05 30.29471 113.32499 35108 ft 513 kts 51°
2026-05-04 14:06 30.33354 113.39420 35109 ft 514 kts 52°
2026-05-04 14:06 30.37221 113.46342 35103 ft 512 kts 51°
2026-05-04 14:07 30.41092 113.53279 35111 ft 512 kts 52°
2026-05-04 14:07 30.44936 113.60185 35101 ft 513 kts 52°
2026-05-04 14:08 30.48783 113.67110 35099 ft 513 kts 52°
2026-05-04 14:08 30.52651 113.74101 35104 ft 514 kts 54°
2026-05-04 14:09 30.56486 113.85735 35107 ft 525 kts 79°
2026-05-04 14:10 30.56451 113.98410 35111 ft 527 kts 98°
2026-05-04 14:10 30.55522 114.06876 35097 ft 527 kts 98°
2026-05-04 14:11 30.54676 114.15315 35098 ft 527 kts 97°
2026-05-04 14:11 30.53481 114.27943 35115 ft 528 kts 97°
2026-05-04 14:12 30.52659 114.36368 35106 ft 527 kts 97°
2026-05-04 14:13 30.51409 114.49038 35121 ft 528 kts 97°
2026-05-04 14:13 30.50570 114.57476 35123 ft 529 kts 97°
2026-05-04 14:14 30.49725 114.65942 35119 ft 528 kts 98°
2026-05-04 14:14 30.48452 114.78574 35118 ft 529 kts 98°
2026-05-04 14:15 30.46726 114.95525 35122 ft 529 kts 98°
2026-05-04 14:16 30.45422 115.08196 35123 ft 530 kts 98°
2026-05-04 14:17 30.43850 115.20807 35137 ft 529 kts 106°
2026-05-04 14:17 30.41605 115.28841 35135 ft 523 kts 117°
2026-05-04 14:18 30.40026 115.32692 35129 ft 521 kts 123°
2026-05-04 14:19 30.32299 115.46678 35142 ft 517 kts 129°
2026-05-04 14:19 30.28346 115.53649 35140 ft 518 kts 129°
2026-05-04 14:20 30.24414 115.60613 35142 ft 519 kts 129°
2026-05-04 14:20 30.20469 115.67611 35143 ft 519 kts 129°
2026-05-04 14:21 30.14557 115.78075 35145 ft 518 kts 129°
2026-05-04 14:21 30.10614 115.85038 35149 ft 519 kts 130°
2026-05-04 14:22 30.06650 115.92026 35147 ft 520 kts 130°
2026-05-04 14:22 30.02690 115.98996 34894 ft 520 kts 129°
2026-05-04 14:23 29.98722 116.05966 35344 ft 523 kts 130°
2026-05-04 14:23 29.96714 116.09493 35236 ft 522 kts 130°
2026-05-04 14:24 29.92697 116.16524 35166 ft 532 kts 130°
2026-05-04 14:24 29.88581 116.23717 35150 ft 540 kts 130°
2026-05-04 14:25 29.84441 116.30953 35147 ft 541 kts 130°
2026-05-04 14:25 29.78250 116.41748 34915 ft 543 kts 130°
2026-05-04 14:26 29.76159 116.45386 34500 ft 542 kts 130°
2026-05-04 14:26 29.74099 116.48972 34091 ft 541 kts 130°
2026-05-04 14:26 29.72010 116.52599 33675 ft 542 kts 130°
2026-05-04 14:26 29.69936 116.56195 33264 ft 543 kts 131°
2026-05-04 14:27 29.67848 116.59816 32856 ft 543 kts 131°
2026-05-04 14:27 29.65767 116.63418 32439 ft 542 kts 130°
2026-05-04 14:27 29.63699 116.66991 32002 ft 542 kts 131°
2026-05-04 14:27 29.61632 116.70566 31564 ft 538 kts 130°
2026-05-04 14:28 29.59567 116.74135 31125 ft 533 kts 131°
2026-05-04 14:28 29.57515 116.77679 30700 ft 529 kts 130°
2026-05-04 14:28 29.55488 116.81175 30248 ft 525 kts 131°
2026-05-04 14:28 29.53481 116.84631 29830 ft 521 kts 130°
2026-05-04 14:29 29.49493 116.91492 28866 ft 513 kts 130°
2026-05-04 14:29 29.45579 116.98216 27915 ft 506 kts 130°
2026-05-04 14:30 29.43639 117.01547 27427 ft 502 kts 130°
2026-05-04 14:30 29.41701 117.04871 26942 ft 498 kts 130°
2026-05-04 14:30 29.37876 117.11418 25984 ft 491 kts 129°
2026-05-04 14:31 29.36111 117.14773 25500 ft 494 kts 118°
2026-05-04 14:31 29.35504 117.22562 24538 ft 497 kts 75°
2026-05-04 14:32 29.38222 117.29672 23616 ft 486 kts 60°
2026-05-04 14:32 29.39751 117.33109 23148 ft 482 kts 62°
2026-05-04 14:32 29.41199 117.36541 22693 ft 479 kts 63°
2026-05-04 14:32 29.42593 117.40028 22217 ft 475 kts 64°
2026-05-04 14:33 29.43905 117.43438 21752 ft 472 kts 65°
2026-05-04 14:33 29.45193 117.46860 21290 ft 468 kts 65°
2026-05-04 14:33 29.46471 117.50301 20852 ft 463 kts 65°
2026-05-04 14:33 29.47711 117.53657 20683 ft 462 kts 65°
2026-05-04 14:34 29.48968 117.57067 20682 ft 465 kts 65°
2026-05-04 14:34 29.50230 117.60499 20679 ft 466 kts 65°
2026-05-04 14:34 29.51484 117.63911 20686 ft 466 kts 65°
2026-05-04 14:34 29.52739 117.67332 20684 ft 467 kts 66°
2026-05-04 14:35 29.54002 117.70778 20687 ft 468 kts 66°
2026-05-04 14:35 29.55256 117.74202 20697 ft 467 kts 66°
2026-05-04 14:35 29.56505 117.77620 20693 ft 467 kts 66°
2026-05-04 14:35 29.57763 117.81059 20694 ft 467 kts 66°
2026-05-04 14:36 29.59018 117.84498 20693 ft 466 kts 66°
2026-05-04 14:36 29.60266 117.87919 20699 ft 467 kts 66°
2026-05-04 14:36 29.61522 117.91365 20700 ft 466 kts 66°
2026-05-04 14:36 29.62778 117.94814 20703 ft 466 kts 66°
2026-05-04 14:37 29.64011 117.98204 20706 ft 466 kts 66°
2026-05-04 14:37 29.65261 118.01643 20706 ft 466 kts 66°
2026-05-04 14:37 29.66515 118.05100 20701 ft 467 kts 66°
2026-05-04 14:37 29.67764 118.08545 20710 ft 467 kts 66°
2026-05-04 14:38 29.69013 118.11990 20706 ft 467 kts 66°
2026-05-04 14:38 29.70258 118.15431 20711 ft 467 kts 66°
2026-05-04 14:38 29.71496 118.18854 20707 ft 467 kts 66°
2026-05-04 14:38 29.72698 118.22297 20703 ft 468 kts 70°
2026-05-04 14:39 29.73433 118.25954 20697 ft 469 kts 82°
2026-05-04 14:39 29.73556 118.29708 20383 ft 469 kts 94°
2026-05-04 14:39 29.73248 118.33401 19907 ft 462 kts 97°
2026-05-04 14:40 29.72506 118.40580 18981 ft 444 kts 96°
2026-05-04 14:40 29.72160 118.44059 18521 ft 437 kts 96°
2026-05-04 14:40 29.71834 118.47472 18062 ft 429 kts 96°
2026-05-04 14:40 29.71518 118.50862 17607 ft 422 kts 95°
2026-05-04 14:41 29.71214 118.54193 17152 ft 415 kts 95°
2026-05-04 14:41 29.70919 118.57428 16692 ft 409 kts 95°
2026-05-04 14:41 29.70330 118.63847 15769 ft 397 kts 95°
2026-05-04 14:42 29.69755 118.70071 14914 ft 384 kts 96°
2026-05-04 14:42 29.69479 118.73086 14820 ft 380 kts 96°
2026-05-04 14:42 29.69204 118.76123 14682 ft 383 kts 96°
2026-05-04 14:43 29.68933 118.79132 14329 ft 381 kts 96°
2026-05-04 14:43 29.68661 118.82127 13975 ft 377 kts 96°
2026-05-04 14:43 29.68389 118.85113 13608 ft 373 kts 96°
2026-05-04 14:43 29.68122 118.88046 13243 ft 370 kts 96°
2026-05-04 14:44 29.67854 118.90970 12884 ft 366 kts 95°
2026-05-04 14:44 29.67586 118.93894 12519 ft 363 kts 95°
2026-05-04 14:44 29.67323 118.96748 12154 ft 360 kts 95°
2026-05-04 14:44 29.67062 118.99585 11926 ft 355 kts 95°
2026-05-04 14:45 29.66804 119.02389 11924 ft 357 kts 95°
2026-05-04 14:45 29.66540 119.05244 11921 ft 359 kts 95°
2026-05-04 14:45 29.66277 119.08091 11918 ft 359 kts 95°
2026-05-04 14:45 29.66012 119.10931 11918 ft 359 kts 95°
2026-05-04 14:46 29.65747 119.13775 11916 ft 358 kts 95°
2026-05-04 14:46 29.65480 119.16638 11917 ft 359 kts 95°
2026-05-04 14:46 29.65227 119.19469 11918 ft 358 kts 95°
2026-05-04 14:46 29.64978 119.22317 11918 ft 358 kts 95°
2026-05-04 14:47 29.64728 119.25132 11918 ft 358 kts 95°
2026-05-04 14:47 29.64474 119.27985 11919 ft 358 kts 95°
2026-05-04 14:47 29.64219 119.30850 11919 ft 358 kts 94°
2026-05-04 14:47 29.64033 119.33697 11918 ft 358 kts 93°
2026-05-04 14:48 29.63871 119.36539 11917 ft 357 kts 93°
2026-05-04 14:48 29.63712 119.39377 11917 ft 357 kts 93°
2026-05-04 14:48 29.63551 119.42203 11915 ft 358 kts 93°
2026-05-04 14:48 29.63388 119.45049 11914 ft 358 kts 93°
2026-05-04 14:49 29.63222 119.47921 11914 ft 358 kts 92°
2026-05-04 14:49 29.63112 119.50780 11913 ft 358 kts 91°
2026-05-04 14:49 29.63038 119.53624 11908 ft 358 kts 90°
2026-05-04 14:49 29.62965 119.56508 11910 ft 359 kts 90°
2026-05-04 14:50 29.62892 119.59368 11910 ft 359 kts 90°
2026-05-04 14:50 29.62840 119.62224 11909 ft 358 kts 86°
2026-05-04 14:50 29.63299 119.65040 11901 ft 356 kts 69°
2026-05-04 14:50 29.64428 119.67535 11909 ft 354 kts 53°
2026-05-04 14:51 29.65960 119.69746 11919 ft 354 kts 49°
2026-05-04 14:51 29.67521 119.71909 11906 ft 354 kts 49°
2026-05-04 14:51 29.69102 119.74106 11629 ft 354 kts 50°
2026-05-04 14:51 29.70647 119.76266 11316 ft 350 kts 50°
2026-05-04 14:52 29.72186 119.78438 10996 ft 347 kts 50°
2026-05-04 14:52 29.73694 119.80572 10681 ft 343 kts 50°
2026-05-04 14:52 29.75188 119.82692 10366 ft 339 kts 50°
2026-05-04 14:52 29.76658 119.84780 10054 ft 335 kts 50°
2026-05-04 14:53 29.78125 119.86871 9777 ft 330 kts 50°
2026-05-04 14:53 29.79559 119.88911 9510 ft 325 kts 50°
2026-05-04 14:53 29.80944 119.90884 9234 ft 317 kts 50°
2026-05-04 14:53 29.82321 119.92847 8967 ft 309 kts 50°
2026-05-04 14:54 29.83640 119.94741 8702 ft 302 kts 51°
2026-05-04 14:54 29.84860 119.96681 8436 ft 297 kts 54°
2026-05-04 14:54 29.85950 119.98676 8153 ft 289 kts 58°
2026-05-04 14:54 29.86909 120.00657 7888 ft 281 kts 59°
2026-05-04 14:55 29.87838 120.02616 7604 ft 276 kts 60°
2026-05-04 14:55 29.88749 120.04537 7292 ft 276 kts 60°
2026-05-04 14:55 29.89669 120.06481 6975 ft 274 kts 60°
2026-05-04 14:55 29.90581 120.08403 6657 ft 272 kts 60°
2026-05-04 14:56 29.91491 120.10319 6301 ft 271 kts 60°
2026-05-04 14:56 29.92385 120.12210 5980 ft 267 kts 60°
2026-05-04 14:56 29.93278 120.14092 5903 ft 269 kts 60°
2026-05-04 14:56 29.94173 120.15984 5902 ft 271 kts 60°
2026-05-04 14:57 29.95069 120.17882 5898 ft 271 kts 60°
2026-05-04 14:57 29.95974 120.19797 5899 ft 272 kts 60°
2026-05-04 14:57 29.96885 120.21725 5890 ft 272 kts 60°
2026-05-04 14:57 29.97792 120.23644 5888 ft 272 kts 60°
2026-05-04 14:58 29.98690 120.25543 5902 ft 272 kts 60°
2026-05-04 14:58 29.99604 120.27480 5903 ft 272 kts 60°
2026-05-04 14:58 30.00476 120.29394 5879 ft 272 kts 62°
2026-05-04 14:58 30.01349 120.31355 5887 ft 272 kts 62°
2026-05-04 14:59 30.02202 120.33276 5891 ft 272 kts 62°
2026-05-04 14:59 30.03064 120.35220 5896 ft 271 kts 62°
2026-05-04 14:59 30.04798 120.39113 5888 ft 271 kts 62°
2026-05-04 15:00 30.05656 120.41042 5883 ft 271 kts 62°
2026-05-04 15:00 30.06519 120.42985 5883 ft 270 kts 61°
2026-05-04 15:00 30.07370 120.44898 5877 ft 270 kts 61°
2026-05-04 15:01 30.09117 120.48820 5265 ft 278 kts 62°
2026-05-04 15:01 30.09998 120.50802 4953 ft 280 kts 62°
2026-05-04 15:01 30.10873 120.52773 4905 ft 271 kts 62°
2026-05-04 15:01 30.11730 120.54709 4904 ft 271 kts 62°
2026-05-04 15:02 30.12582 120.56632 4898 ft 271 kts 62°
2026-05-04 15:02 30.13445 120.58579 4888 ft 270 kts 62°
2026-05-04 15:02 30.14296 120.60506 4903 ft 271 kts 62°
2026-05-04 15:02 30.15153 120.62445 4918 ft 271 kts 62°
2026-05-04 15:03 30.16008 120.64380 4911 ft 272 kts 62°
2026-05-04 15:03 30.16871 120.66335 4740 ft 270 kts 63°
2026-05-04 15:03 30.17728 120.68278 4529 ft 268 kts 63°
2026-05-04 15:03 30.18569 120.70185 4345 ft 265 kts 63°
2026-05-04 15:04 30.19402 120.72076 4153 ft 263 kts 63°
2026-05-04 15:04 30.20233 120.73962 3837 ft 262 kts 64°
2026-05-04 15:04 30.21073 120.75832 3450 ft 262 kts 59°
2026-05-04 15:04 30.22351 120.77277 3056 ft 262 kts 24°
2026-05-04 15:05 30.24133 120.77585 2679 ft 259 kts 346°
2026-05-04 15:05 30.25676 120.76660 2302 ft 251 kts 314°
2026-05-04 15:05 30.26899 120.75250 1978 ft 247 kts 316°
2026-05-04 15:05 30.28230 120.74017 1920 ft 238 kts 323°
2026-05-04 15:06 30.29603 120.72991 1913 ft 229 kts 328°
2026-05-04 15:06 30.30969 120.72103 1902 ft 220 kts 330°
2026-05-04 15:06 30.32282 120.71304 1892 ft 209 kts 331°
2026-05-04 15:07 30.34327 120.69338 1874 ft 186 kts 274°
2026-05-04 15:07 30.34093 120.67937 1934 ft 181 kts 241°
2026-05-04 15:07 30.33467 120.66670 1931 ft 181 kts 236°
2026-05-04 15:07 30.32811 120.65410 1911 ft 181 kts 237°
2026-05-04 15:08 30.32184 120.64146 1905 ft 182 kts 238°
2026-05-04 15:08 30.31573 120.62849 1903 ft 182 kts 240°
2026-05-04 15:08 30.30988 120.61563 1900 ft 182 kts 240°
2026-05-04 15:08 30.30419 120.60287 1883 ft 171 kts 240°
2026-05-04 15:09 30.29891 120.59091 1883 ft 160 kts 240°
2026-05-04 15:09 30.29405 120.57992 1870 ft 150 kts 240°
2026-05-04 15:09 30.28931 120.56920 1886 ft 148 kts 240°
2026-05-04 15:10 30.27992 120.54805 1857 ft 148 kts 240°
2026-05-04 15:10 30.27527 120.53756 1664 ft 147 kts 240°
2026-05-04 15:10 30.26596 120.51655 1281 ft 146 kts 240°
2026-05-04 15:11 30.26130 120.50607 1090 ft 146 kts 240°
2026-05-04 15:11 30.25664 120.49557 898 ft 145 kts 240°
2026-05-04 15:11 30.25205 120.48521 708 ft 145 kts 241°
2026-05-04 15:11 30.24743 120.47481 514 ft 145 kts 241°
2026-05-04 15:12 30.24283 120.46443 335 ft 144 kts 242°
2026-05-04 15:12 30.23829 120.45412 138 ft 143 kts 241°
2026-05-04 15:12 30.23391 120.44427 47 ft 130 kts 242°
2026-05-04 15:12 30.23093 120.43765 46 ft 49 kts 243°
2026-05-04 15:13 30.22954 120.43453 44 ft 45 kts 244°
2026-05-04 15:13 30.22874 120.43173 43 ft 24 kts 265°
2026-05-04 15:13 30.22871 120.43074 43 ft 0 kts 271°
2026-05-04 15:14 30.22871 120.43073 43 ft 0 kts 271°
2026-05-04 15:14 30.22871 120.43054 43 ft 4 kts 272°
2026-05-04 15:15 30.22872 120.43034 43 ft 0 kts 278°
2026-05-04 15:15 30.22873 120.43033 43 ft 0 kts 281°
2026-05-04 15:15 30.22882 120.43008 43 ft 5 kts 302°
2026-05-04 15:16 30.22999 120.42931 43 ft 11 kts 346°
2026-05-04 15:16 30.23061 120.42931 44 ft 0 kts 20°
2026-05-04 15:17 30.23105 120.42975 45 ft 12 kts 52°
2026-05-04 15:17 30.23154 120.43074 46 ft 14 kts 58°
2026-05-04 15:18 30.23230 120.43133 47 ft 13 kts 28°
2026-05-04 15:18 30.23285 120.43166 47 ft 0 kts 28°
2026-05-04 15:19 30.23294 120.43171 46 ft 0 kts 27°